Regional Weather Roundup
Issued by NWS

Home | Current Version | Previous Version | Graphics & Text | Print | Product List | Glossary On
Versions: 1 2 3 4 5 6 7 8 9 10 11 12 13 14 15 16 17 18 19 20 21 22 23 24 25 26 27 28 29 30 31 32 33 34 35 36 37 38 39 40 41 42 43 44 45 46 47 48 49 50
351
ASUS45 KBOU 251307
RWRCO

WEATHER ROUNDUP FOR COLORADO
NATIONAL WEATHER SERVICE DENVER/BOULDER CO
700 AM MDT THU AUG 25 2016

NOTE: "FAIR" INDICATES FEW OR NO CLOUDS BELOW 12000 FEET WITH NO
SIGNIFICANT WEATHER AND/OR OBSTRUCTIONS TO VISIBILITY.

COZ001>005-013-030-031-251400-
...NORTHWEST COLORADO...

CITY           SKY/WX    TMP DP  RH WIND       PRES   REMARKS
CRAIG          FAIR      41  37  86 SE3       30.29R
HAYDEN         FAIR      45  32  61 CALM      30.29R
MEEKER         FAIR      40  37  89 CALM      30.27R
MOUNT WERNER   NOT AVBL
STEAMBOAT SPGS FAIR      40  36  84 CALM      30.30R
WALDEN         FAIR      34  32  93 NE7       30.36S WCI  28
$$

COZ006>008-011-251400-
...WEST CENTRAL VALLEYS...

CITY           SKY/WX    TMP DP  RH WIND       PRES   REMARKS
GRAND JUNCTION FAIR      58  45  62 E13       30.16R
MONTROSE       FAIR      49  41  74 S5        30.26R
EAGLE          CLEAR     46  36  66 CALM      30.31R
RIFLE          FAIR      49  43  80 CALM      30.23R
DELTA          NOT AVBL
NUCLA          FAIR      50  41  71 E6        30.28R
$$

COZ017>023-064>068-251400-
...SOUTHWEST COLORADO...

CITY           SKY/WX    TMP DP  RH WIND       PRES   REMARKS
DURANGO        FAIR      44  42  93 CALM      30.31S
CORTEZ         FAIR      47  45  93 E3        30.26R
PAGOSA SPRINGS FAIR      43  43 100 CALM      30.38S
TELLURIDE      FAIR      43  38  80 CALM      30.45R
WOLF CREEK PAS FOG       37  37 100 SW10      30.60S VSB<1/4
$$

COZ009-010-012-014-032>034-037-058>063-251400-
...CENTRAL COLORADO...

CITY           SKY/WX    TMP DP  RH WIND       PRES   REMARKS
ASPEN          FAIR      43  35  73 SW8       30.32S
BUENA VISTA    FAIR      40  39  95 CALM      30.39R
COPPER MTN     FAIR      41  28  60 SW6       30.56R
BERTHOUD PASS  FAIR      34  23  64 W13       30.57S WCI  25
COTTONWOOD PAS FAIR      46  34  61 SW5       30.46R
GUNNISON       FAIR      43  36  75 N6        30.41R
KREMMLING      FAIR      36  34  93 CALM      30.36R
LEADVILLE      FAIR      34  32  92 E3        30.45R
MONARCH PASS   FAIR      37  32  81 W18       30.66S
SALIDA         MOCLDY    47  44  89 W3        30.45R
SUNLIGHT       FAIR      43  32  65 NE7       30.51R
WILKERSON PASS CLOUDY    37  36  93 W6        30.55R
$$

COZ069>075-251400-
...SAN LUIS VALLEY/SANGRE DE CRISTO MOUNTAINS...

CITY           SKY/WX    TMP DP  RH WIND       PRES   REMARKS
ALAMOSA        FOG       35  35 100 CALM      30.37R VSB 3/4
LA VETA PASS   FAIR      43  37  81 S7        30.47R
SAGUACHE       FAIR      43  41  93 NW9       30.39R
$$

COZ035-036-038>040-251400-
...NORTHERN COLORADO FRONT RANGE...

CITY           SKY/WX    TMP DP  RH WIND       PRES   REMARKS
DENVER INTL AP FAIR      50  40  68 W6        30.25R
DMNS CITY PARK   N/A     50  48  90 W5        30.26R
AURORA         PTCLDY    48  41  74 SW5       30.26R
FRONT RANGE AP NOT AVBL
ERIE MUNI ARPT FAIR      49  48  97 N7        30.26R FOG
BOULDER MUN AP FAIR      50  48  93 CALM      30.26R
CENTENNIAL     FAIR      48  40  73 CALM      30.26R
BROOMFIELD     MOCLDY    50  48  93 N6        30.27R
FORT COLLINS   FAIR      46  45  93 N7        30.27R
LONGMONT       FAIR      53  49  86 N5        30.27R FOG
$$

COZ041-046-047-076>085-087-088-251400-
...PIKES PEAK/PALMER DIVIDE AND SOUTHERN FOOTHILLS...

CITY           SKY/WX    TMP DP  RH WIND       PRES   REMARKS
COLO. SPRINGS  FAIR      46  36  68 NE3       30.30R
A. F. ACADEMY  FAIR      40  39  94 N9        30.30R
SCHRIEVER AFB  NOT AVBL
ELLICOTT       FAIR     N/A N/A N/A E3        30.28R
FALCON         FAIR      45  40  83 W3        30.32S
FORT CARSON    NOT AVBL
LIMON          FAIR      38  32  79 CALM      30.27R
MONUMENT HILL  FAIR      43  39  87 S8        30.32S
TRINIDAD       FAIR      51  47  86 W13       30.28R
$$

COZ042>045-048>051-090-091-251400-
...NORTHEAST COLORADO...

CITY           SKY/WX    TMP DP  RH WIND       PRES   REMARKS
GREELEY ARPT   FAIR      45  43  93 N5        30.26R
AKRON          FAIR      49  38  65 SE7       30.24R
BURLINGTON     FAIR      52  46  80 CALM      30.23R
WRAY           FAIR      45  41  87 SW3       30.23R
STERLING       FAIR      43  37  81 CALM      30.23R
HOLYOKE        FAIR      52  45  76 NW3       30.24R
FORT MORGAN    FAIR      47  39  73 NE7       30.25R
$$

COZ086-089-092>099-251400-
...SOUTHEAST COLORADO...

CITY           SKY/WX    TMP DP  RH WIND       PRES   REMARKS
PUEBLO         FAIR      51  45  79 CALM      30.24R
LA JUNTA       FAIR      55  44  66 CALM      30.23R
LAMAR          MOCLDY    58  53  84 E3        30.21R
SPRINGFIELD      N/A     55  52  89 CALM      30.23R
$$




USA.gov is the U.S. government's official web portal to all federal, state and local government web resources and services.